Location: ??????
(30.0081°N, 31.2109°E)
Time: 09:00:10
(UTC+00:00)

Delta 2 Rocket - Pass Details

Date: 03 March 2021
Orbit: 890 x 1677 km, 26.4° (Epoch: 15 April)

Event Time Altitude Azimuth Distance (km) Brightness Sun altitude
Rises 17:57:21 0° 255° (WSW) 3,625 8.0 -27.1°
Reaches altitude 10° 18:00:05 10° 251° (WSW) 2,617 7.0 -27.7°
Enters shadow 18:05:41 57° 192° (SSW) 1,037 4.0 -28.9°
